Flag for France Weather past 2 weeks in Bourges, France

Now
55 °F

Overcast.


Feels Like: 53 °F
Forecast: 40 / 56 °F
Wind: 10 mph from North

Location: Bourges

Current Time: Apr 27, 2015 at 5:44:56 PM

Latest Report: Apr 27, 2015 at 5:00 PM


Visibility: 16 mi

Pressure: 29.77 "Hg

Humidity: 69%

Dew point: 45 °F

Location of BourgesLocation

Historic Weather in Bourges — Graph

°F

Bourges temperature yesterday

Maximum temperature yesterday: 64 °F (at 12:00 PM)
Minimum temperature yesterday: 46 °F (at 7:00 AM)
Average temperature yesterday: 55 °F

Past Weeks' High & Low Weather Summary

 TemperatureHumidityPressure
High81 °F (Apr 15, 5:00 PM)98% (Apr 26, 7:00 AM)30.47 "Hg (Apr 26, 7:00 AM)
Low42 °F (Apr 19, 7:00 AM)23% (Apr 21, 5:00 PM)29.56 "Hg (Apr 27, 6:00 AM)
Average59 °F63%30.06 "Hg
* Reported Apr 12 4:00 PM — Apr 27 4:00 PM, Bourges, Weather by CustomWeather, © 2015

Note: Actual official high and low records may vary slightly from our data, if they occured in-between our weather recording intervals... More about our weather records

Advertising

Bourges weather history for previous 24 hours

 ConditionsComfort  
Time TempWeatherWind HumidityBarometerVisibility
4:00 PM
Mon, Apr 27
53 °FOvercast.12 mph78%29.76 "Hg11 mi
3:00 PM52 °FOvercast.12 mph82%29.75 "Hg6 mi
2:00 PM51 °FOvercast.13 mph87%29.73 "Hg6 mi
1:00 PM50 °FOvercast.12 mph89%29.72 "Hg5 mi
12:00 PM51 °FLow clouds.9 mph91%29.70 "Hg11 mi
11:00 AM51 °FLight rain. Low clouds.13 mph91%29.67 "Hg11 mi
10:00 AM52 °FLight rain. Low clouds.12 mph91%29.64 "Hg9 mi
9:00 AM53 °FLight rain. Low clouds.9 mph95%29.60 "Hg9 mi
8:00 AM53 °FLight rain. Low clouds.8 mph96%29.59 "Hg6 mi
7:00 AM53 °FLight rain. Low clouds.8 mph95%29.57 "Hg6 mi
6:00 AM55 °FLight rain. Low clouds.6 mph97%29.56 "Hg2 mi
5:00 AM55 °FOvercast.No wind95%29.57 "Hg12 mi
4:00 AM54 °FOvercast.2 mph96%29.57 "Hg12 mi
3:00 AM55 °FOvercast.5 mph96%29.59 "Hg12 mi
2:00 AM55 °FOvercast.5 mph96%29.60 "Hg12 mi
1:00 AM55 °FOvercast.6 mph96%29.62 "Hg12 mi
12:00 AM55 °FOvercast.7 mph96%29.62 "Hg12 mi
11:00 PM
Sun, Apr 26
56 °FOvercast.6 mph96%29.63 "Hg12 mi
10:00 PM56 °FOvercast.6 mph97%29.63 "Hg10 mi
9:00 PM57 °FRain. Overcast.7 mph96%29.64 "Hg7 mi
8:00 PM58 °FOvercast.6 mph93%29.64 "Hg12 mi
7:00 PM59 °FRain. Overcast.6 mph93%29.63 "Hg9 mi
6:00 PM60 °FOvercast.3 mph87%29.63 "Hg12 mi
5:00 PM59 °FLight rain. Overcast.2 mph89%29.66 "Hg6 mi
Weather by CustomWeather, © 2015

See weather overviewHow to use our weather pages